Location: Newark
(53.3469°N, 7.1606°E)
Time: 23:29:49
(UTC+00:00)

N. Korean satellite - Pass Details

Date: 12 November 2019
Orbit: 455 x 507 km, 97.2° (Epoch: 14 December)

Event Time Altitude Azimuth Distance (km) Brightness Sun altitude
Rises 04:22:55 0° 27° (NNE) 2,626 10.6 -21.8°
Reaches altitude 10° 04:25:44 10° 51° (NE) 1,735 10.0 -21.4°
Maximum altitude 04:28:02 16° 89° (E) 1,417 9.9 -21.1°
Drops below altitude 10° 04:30:19 10° 127° (SE) 1,722 10.1 -20.7°
Sets 04:33:05 0° 150° (SSE) 2,596 10.7 -20.3°
